Погода в Альтдорфе

Швейцария     46°52′57″N   8°38′26″E
темп.,
°C
ветер,
м/с
пор.,
м/с
влажн.,
%
обл.,
%
осадки,
мм/ч
давл.,
гПа
погр.,
м
11 мая, вт
вт1123:00+6ююв339322 0.4 101050
02:00+4ююв339330 2.4 101149
05:00+4ююв329581 0.4 100927
08:00+6ююв2296100 1.1 1009102
11:00+6зюз1297100 1.3 1008217
14:00+5ссз22100100 4.3 1010186
17:00+4св1198100 8.1 1012246
20:00+3ююв2298100 12.6 101372
12 мая, ср
ср1223:00+3зюз1199100 2.8 101494
02:00+3зсз22100100 7.1 1015295
05:00+2з0299100 5.8 1016369
08:00+2зсз12100100 8.3 1016382
11:00+2ссз1199100 0.8 1015307
14:00+6с118687 1.1 1012667
17:00+5ссз1193100 0.6 1011320
20:00+4ссз1299100 1.7 1012142
13 мая, чт
чт1323:00+3с1199100 0.9 1013111
02:00+3ю119988 1.3 101289
05:00+1ююв229899 0.1 101266
08:00+3з119684 0.3 1011166
11:00+4сз1198100 0.9 1011467
14:00+3сз22100100 2.7 1011429
17:00+3сз1299100 1.1 1011304
20:00+2ю129696 1.3 1011158
14 мая, пт
пт1423:00+1ююв228983 0.0 101225
02:00−1ююв32875 0.0 101326
05:00−1ююв32874 0.0 101230
08:00+3ююв11774 0.0 1011125
11:00+8с115790 0.0 10091354
14:00+9ссз115660 0.3 10081370
17:00+9ссз226586 0.9 10071163
20:00+6ссз1187100 2.3 100933
15 мая, сб
сб1523:00+4зсз22100100 1.2 1012168
02:00+2з22100100 5.1 1014336
05:000юз12100100 8.8 101583
08:00+1зюз01100100 18.0 1016121
11:00+3вюв019899 2.3 1016235
14:00+4сз1198100 3.0 1015426
17:00+6ююз019260 0.3 1014400
20:00+3ю239798 0.6 1015100